When you browse on this site, cookies collect data to enhance your experience and personalize the content and advertising you see.
Visit our Privacy Policy to learn more. By continuing to use the site, you agree to this use of cookies and data.

Previsão horária em 1-e Itkulovo

Hoje, 28 Setembro, Segunda-feira

Tempo Temperatura Precipitação Vento Pressão Humidade
00:00 +9°C° 0 mm 1 m/s 728 mmHg 74%
01:00 +9°C° 0 mm 1 m/s 728 mmHg 77%
02:00 +9°C° 0 mm 1 m/s 728 mmHg 77%
03:00 +8°C° 0 mm 1 m/s 728 mmHg 78%
04:00 +8°C° 0 mm 1 m/s 728 mmHg 80%
05:00 +8°C° 0 mm 1 m/s 728 mmHg 80%
06:00 +9°C° 0 mm 1 m/s 728 mmHg 81%
07:00 +9°C° 0 mm 1 m/s 728 mmHg 81%
08:00 +10°C° 0 mm 1 m/s 728 mmHg 74%
09:00 +12°C° 0 mm 1 m/s 728 mmHg 67%
10:00 +14°C° 0 mm 2 m/s 729 mmHg 58%
11:00 +15°C° 0 mm 2 m/s 728 mmHg 54%
12:00 +16°C° 0 mm 2 m/s 728 mmHg 51%
13:00 +17°C° 0 mm 2 m/s 728 mmHg 47%
14:00 +17°C° 0 mm 2 m/s 728 mmHg 48%
15:00 +17°C° 0 mm 2 m/s 728 mmHg 48%
16:00 +17°C° 0 mm 2 m/s 728 mmHg 49%
17:00 +15°C° 0 mm 2 m/s 728 mmHg 56%
18:00 +13°C° 0 mm 2 m/s 728 mmHg 64%
19:00 +10°C° 0 mm 2 m/s 727 mmHg 71%
20:00 +10°C° 0 mm 2 m/s 728 mmHg 74%
21:00 +9°C° 0 mm 2 m/s 728 mmHg 76%
22:00 +9°C° 0 mm 2 m/s 728 mmHg 79%
23:00 +8°C° 0 mm 2 m/s 728 mmHg 80%

Amanhã, 29 Setembro, Terça-feira

Tempo Temperatura Precipitação Vento Pressão Humidade
00:00 +8°C° 0 mm 2 m/s 728 mmHg 81%
01:00 +8°C° 0 mm 2 m/s 728 mmHg 82%
02:00 +7°C° 0 mm 2 m/s 728 mmHg 84%
03:00 +7°C° 0 mm 2 m/s 728 mmHg 86%
04:00 +7°C° 0 mm 2 m/s 728 mmHg 88%
05:00 +7°C° 0 mm 2 m/s 729 mmHg 88%
06:00 +7°C° 0 mm 2 m/s 729 mmHg 89%
07:00 +8°C° 0 mm 1 m/s 729 mmHg 89%
08:00 +9°C° 0 mm 2 m/s 729 mmHg 81%
09:00 +12°C° 0 mm 2 m/s 729 mmHg 74%
10:00 +13°C° 0 mm 3 m/s 729 mmHg 66%
11:00 +13°C° 0 mm 3 m/s 729 mmHg 62%
12:00 +14°C° 0 mm 3 m/s 729 mmHg 59%
13:00 +15°C° 0 mm 4 m/s 729 mmHg 55%
14:00 +16°C° 0 mm 3 m/s 729 mmHg 55%
15:00 +16°C° 0 mm 3 m/s 729 mmHg 56%
16:00 +14°C° 0 mm 3 m/s 729 mmHg 56%
17:00 +14°C° 0 mm 2 m/s 728 mmHg 63%
18:00 +12°C° 0 mm 2 m/s 728 mmHg 69%
19:00 +10°C° 0 mm 2 m/s 728 mmHg 75%
20:00 +10°C° 0 mm 1 m/s 728 mmHg 77%
21:00 +10°C° 0 mm 1 m/s 728 mmHg 79%
22:00 +9°C° 0 mm 1 m/s 728 mmHg 81%
23:00 +9°C° 0 mm 1 m/s 728 mmHg 83%

Depois de amanhã, 30 Setembro, Quarta-feira

Tempo Temperatura Precipitação Vento Pressão Humidade
00:00 +9°C° 0 mm 1 m/s 728 mmHg 84%
01:00 +8°C° 0 mm 1 m/s 728 mmHg 86%
02:00 +8°C° 0 mm 1 m/s 728 mmHg 87%
03:00 +8°C° 0 mm 1 m/s 728 mmHg 88%
04:00 +8°C° 0 mm 1 m/s 728 mmHg 89%
05:00 +8°C° 0 mm 1 m/s 728 mmHg 89%
06:00 +8°C° 0 mm 1 m/s 728 mmHg 89%
07:00 +8°C° 0 mm 1 m/s 728 mmHg 89%
08:00 +10°C° 0 mm 1 m/s 728 mmHg 81%
09:00 +12°C° 0 mm 1 m/s 728 mmHg 74%
10:00 +14°C° 0 mm 1 m/s 729 mmHg 67%
11:00 +15°C° 0 mm 1 m/s 728 mmHg 64%
12:00 +16°C° 0 mm 1 m/s 728 mmHg 61%
13:00 +18°C° 0 mm 1 m/s 728 mmHg 58%
14:00 +16°C° 0 mm 2 m/s 728 mmHg 60%
15:00 +16°C° 0 mm 2 m/s 728 mmHg 62%
16:00 +16°C° 0 mm 2 m/s 728 mmHg 63%
17:00 +14°C° 0 mm 2 m/s 727 mmHg 71%
18:00 +13°C° 0 mm 1 m/s 727 mmHg 78%
19:00 +11°C° 0 mm 1 m/s 727 mmHg 86%
20:00 +11°C° 0 mm 1 m/s 727 mmHg 88%
21:00 +10°C° 0 mm 1 m/s 727 mmHg 90%
22:00 +9°C° 0 mm 1 m/s 727 mmHg 91%
23:00 +9°C° 0 mm 1 m/s 727 mmHg 92%

1 Outubro, Quinta-feira

Tempo Temperatura Precipitação Vento Pressão Humidade
00:00 +9°C° 0 mm 1 m/s 727 mmHg 92%
01:00 +8°C° 0 mm 1 m/s 727 mmHg 93%
02:00 +8°C° 0 mm 1 m/s 727 mmHg 93%
03:00 +8°C° 0 mm 1 m/s 727 mmHg 94%
04:00 +8°C° 0 mm 1 m/s 727 mmHg 94%
05:00 +8°C° 0 mm 1 m/s 727 mmHg 95%
06:00 +8°C° 0 mm 1 m/s 728 mmHg 95%
07:00 +8°C° 0 mm 1 m/s 728 mmHg 96%
08:00 +9°C° 0 mm 2 m/s 728 mmHg 87%
09:00 +10°C° 0 mm 2 m/s 728 mmHg 79%
10:00 +13°C° 0 mm 2 m/s 728 mmHg 71%
11:00 +13°C° 0 mm 3 m/s 728 mmHg 66%
12:00 +14°C° 0 mm 3 m/s 727 mmHg 61%
13:00 +16°C° 0 mm 3 m/s 727 mmHg 57%
14:00 +16°C° 0 mm 3 m/s 727 mmHg 57%
15:00 +16°C° 0 mm 3 m/s 727 mmHg 57%
16:00 +15°C° 0 mm 2 m/s 727 mmHg 57%
17:00 +14°C° 0 mm 2 m/s 727 mmHg 64%
18:00 +12°C° 0 mm 2 m/s 727 mmHg 70%
19:00 +11°C° 0 mm 1 m/s 726 mmHg 77%
20:00 +10°C° 0 mm 1 m/s 726 mmHg 79%
21:00 +10°C° 0 mm 1 m/s 727 mmHg 82%
22:00 +9°C° 0 mm 1 m/s 727 mmHg 84%
23:00 +9°C° 0 mm 1 m/s 727 mmHg 86%

2 Outubro, Sexta-feira

Tempo Temperatura Precipitação Vento Pressão Humidade
00:00 +9°C° 0 mm 1 m/s 726 mmHg 87%
01:00 +8°C° 0 mm 1 m/s 726 mmHg 89%
02:00 +8°C° 0 mm 1 m/s 726 mmHg 89%
03:00 +8°C° 0 mm 1 m/s 727 mmHg 90%
04:00 +7°C° 0 mm 1 m/s 727 mmHg 91%
05:00 +8°C° 0 mm 1 m/s 727 mmHg 91%
06:00 +8°C° 0 mm 1 m/s 727 mmHg 91%
07:00 +8°C° 0 mm 1 m/s 727 mmHg 91%
08:00 +10°C° 0 mm 1 m/s 727 mmHg 83%
09:00 +12°C° 0 mm 1 m/s 727 mmHg 74%
10:00 +14°C° 0 mm 1 m/s 727 mmHg 65%
11:00 +15°C° 0 mm 1 m/s 727 mmHg 60%
12:00 +16°C° 0 mm 1 m/s 727 mmHg 54%
13:00 +18°C° 0 mm 1 m/s 726 mmHg 48%
14:00 +18°C° 0 mm 1 m/s 726 mmHg 47%
15:00 +16°C° 0 mm 0 m/s 726 mmHg 46%
16:00 +15°C° 0 mm 0 m/s 726 mmHg 45%
17:00 +14°C° 0 mm 0 m/s 726 mmHg 52%
18:00 +12°C° 0 mm 0 m/s 725 mmHg 58%
19:00 +10°C° 0 mm 0 m/s 725 mmHg 65%
20:00 +9°C° 0 mm 0 m/s 725 mmHg 67%
21:00 +10°C° 0 mm 1 m/s 725 mmHg 69%
22:00 +10°C° 0 mm 1 m/s 725 mmHg 71%
23:00 +9°C° 0 mm 1 m/s 725 mmHg 73%

3 Outubro, Sábado

Tempo Temperatura Precipitação Vento Pressão Humidade
00:00 +9°C° 0 mm 1 m/s 725 mmHg 76%
01:00 +9°C° 0 mm 1 m/s 725 mmHg 79%
02:00 +8°C° 0 mm 1 m/s 725 mmHg 80%
03:00 +8°C° 0 mm 1 m/s 724 mmHg 81%
04:00 +8°C° 0 mm 1 m/s 724 mmHg 83%
05:00 +8°C° 0 mm 1 m/s 724 mmHg 82%
06:00 +8°C° 0 mm 1 m/s 724 mmHg 82%
07:00 +8°C° 0 mm 1 m/s 725 mmHg 82%
08:00 +10°C° 0 mm 1 m/s 725 mmHg 73%
09:00 +12°C° 0 mm 1 m/s 724 mmHg 63%
10:00 +14°C° 0 mm 2 m/s 724 mmHg 54%
11:00 +15°C° 0 mm 2 m/s 724 mmHg 50%
12:00 +17°C° 0 mm 2 m/s 724 mmHg 45%
13:00 +18°C° 0 mm 3 m/s 724 mmHg 41%
14:00 +17°C° 0 mm 3 m/s 724 mmHg 43%
15:00 +17°C° 0 mm 3 m/s 724 mmHg 45%
16:00 +16°C° 0 mm 3 m/s 724 mmHg 47%
17:00 +14°C° 0 mm 3 m/s 724 mmHg 55%
18:00 +13°C° 0 mm 2 m/s 724 mmHg 63%
19:00 +10°C° 0 mm 2 m/s 724 mmHg 72%
20:00 +9°C° 0 mm 2 m/s 724 mmHg 75%
21:00 +9°C° 0 mm 2 m/s 724 mmHg 79%
22:00 +8°C° 0 mm 2 m/s 724 mmHg 83%
23:00 +8°C° 0 mm 2 m/s 724 mmHg 84%
Mostrar mais